Location: Montr�al
(45.5000°N, 73.5830°W)
Time: 03:39:16
(UTC-04:00)

Cosmos 1151 Rocket - Visible Passes

Search period start: 23 July 2014 00:00
Search period end: 02 August 2014 00:00
Orbit: 595 x 618 km, 82.5° (Epoch: 22 July)

Date Brightness Start Highest point End Pass type
(mag) Time Alt. Az. Time Alt. Az. Time Alt. Az.
23 Jul 5.4 04:18:37 10° SE 04:22:06 24° E 04:25:37 10° NE visible
24 Jul 4.5 04:31:20 10° SSE 04:35:24 38° E 04:39:29 10° NNE visible
25 Jul 3.5 04:44:25 10° S 04:48:45 65° E 04:53:08 10° NNE visible
26 Jul 6.0 03:24:15 10° E 03:25:16 11° E 03:26:18 10° ENE visible
27 Jul 5.6 03:35:32 10° SE 03:38:27 18° E 03:41:23 10° NE visible
28 Jul 4.9 03:47:58 10° SSE 03:51:43 28° E 03:55:28 10° NNE visible
29 Jul 4.0 04:00:50 10° SSE 04:05:02 46° E 04:09:15 10° NNE visible
30 Jul 3.2 04:14:02 10° S 04:18:25 79° E 04:22:49 10° NNE visible
31 Jul 5.7 02:52:48 10° ESE 02:54:50 13° E 02:56:52 10° NE visible
31 Jul 3.1 04:27:44 11° SSW 04:31:52 62° W 04:36:14 10° N visible
01 Aug 5.2 03:04:45 10° SE 03:08:03 21° E 03:11:21 10° NE visible
01 Aug 3.8 04:41:32 11° SW 04:45:24 37° WNW 04:49:30 10° N visible
